Terminal Aerodrome Forecast
Issued by NWS Pocatello, ID

Home | Current Version | Previous Version | Text Only | Print | Product List | Glossary On
Versions: 1 2 3 4 5 6 7 8 9 10 11 12 13 14 15 16
000
FTUS45 KPIH 271100
TAFIDA
TAF
KIDA 271120Z 2712/2812 VRB06KT P6SM FEW140 OVC200
     FM271900 22009KT P6SM SCT120 OVC200
     FM280200 20006KT P6SM BKN200=

USA.gov is the U.S. government's official web portal to all federal, state and local government web resources and services.